Location: Ajisawe
(8.4333°N, 4.3833°E)
Time: 10:11:04
(UTC+00:00)

Vanguard 2 Rocket - Pass Details

Date: 24 April 2021
Orbit: 553 x 3326 km, 32.9° (Epoch: 07 May)

Event Time Altitude Azimuth Distance (km) Brightness Sun altitude
Rises 10:27:20 0° 254° (WSW) 4,750 10.4 71.4°
Reaches altitude 10° 10:30:03 10° 259° (W) 4,071 10.2 72.1°
Maximum altitude 10:41:35 55° 334° (NNW) 2,879 10.4 74.8°
Drops below altitude 10° 11:00:01 10° 49° (NE) 6,193 11.4 79.0°
Sets 11:05:24 0° 53° (NE) 7,304 11.6 80.2°
